Weather History for Ft Lauderdale, FL

Change the Weather History Date:

Thursday, February 9, 2012

  Actual Average Record
Temperature  
Mean Temperature 73 °F 70 °F  
Max Temperature 78 °F 77 °F 86 °F (1936)
Min Temperature 67 °F 64 °F 38 °F (1968)
Degree Days  
Heating Degree Days 0 1  
Month to date heating degree days 0 9  
Since 1 July heating degree days 48 89  
Cooling Degree Days 8 6  
Month to date cooling degree days 91 54  
Year to date cooling degree days 256 224  
Growing Degree Days 22 (Base 50)    
Moisture  
Dew Point 67 °F    
Average Humidity 81    
Maximum Humidity 93    
Minimum Humidity 69    
Precipitation  
Precipitation 0.56 in 0.11 in 2.87 in (1941)
Month to date precipitation 1.08 0.97  
Year to date precipitation 1.28 4.60  
Snow  
Snow 0.00 in - - ()
Month to date snowfall 0.0  
Since 1 July snowfall 0.0  
Snow Depth 0.00 in    
Sea Level Pressure  
Sea Level Pressure 30.05 in    
Wind  
Wind Speed 12 mph (NE)    
Max Wind Speed 21 mph    
Max Gust Speed 24 mph    
Visibility 9 miles    
Events Rain    
T = Trace of Precipitation, MM = Missing Value Source: NWS Daily Summary

Daily Weather History Graph

Daily Weather History Graph

Search for Another Location

Airport:

Trip Planner

Search our weather history database for the weather conditions in past years. The results will help you decide how hot, cold, wet, or windy it might be!

Date:

Astronomy

Feb. 09, 2012 Rise Set
Actual Time 7:00 AM EST 6:09 PM EST
Civil Twilight 6:36 AM EST 6:33 PM EST
Nautical Twilight 6:09 AM EST 7:00 PM EST
Astronomical Twilight 5:42 AM EST 7:27 PM EST
Moon 8:15 PM EST (2/9) 7:53 AM EST (2/9)
Length of Visible Light 11h 56m
Length of Day
11h 08m
Waning Gibbous, 96% of the Moon is Illuminated
Feb 9
Waning Gibbous
Feb 14
Last Quarter
Feb 21
New
Feb 29
First Quarter
Mar 8
Full

Hourly Weather History & Observations

Time (EST) Temp. Dew Point Humidity Pressure Visibility Wind Dir Wind Speed Gust Speed Precip Events Conditions
12:53 AM 69.1 °F 64.0 °F 84% 30.02 in 10.0 mi North 6.9 mph - N/A   Clear
1:53 AM 69.1 °F 64.0 °F 84% 30.01 in 10.0 mi North 6.9 mph - N/A   Partly Cloudy
2:53 AM 68.0 °F 62.1 °F 81% 30.01 in 10.0 mi NNW 9.2 mph - N/A   Partly Cloudy
3:53 AM 66.9 °F 61.0 °F 81% 30.01 in 10.0 mi NNW 6.9 mph - N/A   Partly Cloudy
4:53 AM 68.0 °F 62.1 °F 81% 30.01 in 10.0 mi North 8.1 mph - N/A   Mostly Cloudy
5:53 AM 68.0 °F 64.0 °F 87% 30.02 in 10.0 mi North 11.5 mph - N/A   Scattered Clouds
6:51 AM 66.2 °F 64.4 °F 94% 30.04 in 10.0 mi North 8.1 mph - 0.00 in Rain Light Rain
6:53 AM 66.9 °F 64.9 °F 93% 30.04 in 9.0 mi North 9.2 mph - 0.00 in   Overcast
7:07 AM 66.2 °F 64.4 °F 94% 30.04 in 7.0 mi North 8.1 mph - 0.00 in Rain Light Rain
7:35 AM 68.0 °F 66.2 °F 94% 30.05 in 9.0 mi North 8.1 mph - 0.00 in   Overcast
7:53 AM 70.0 °F 66.9 °F 90% 30.06 in 10.0 mi North 8.1 mph - 0.00 in   Overcast
8:19 AM 71.6 °F 68.0 °F 88% 30.07 in 10.0 mi NNE 10.4 mph - N/A   Mostly Cloudy
8:53 AM 72.0 °F 68.0 °F 87% 30.09 in 10.0 mi NNE 12.7 mph - N/A   Scattered Clouds
9:53 AM 71.1 °F 68.0 °F 90% 30.10 in 10.0 mi NNE 9.2 mph - 0.00 in   Overcast
10:11 AM 69.8 °F 68.0 °F 94% 30.10 in 5.0 mi North 8.1 mph - 0.00 in Rain Light Rain
10:53 AM 71.1 °F 69.1 °F 93% 30.09 in 10.0 mi North 5.8 mph - 0.02 in Rain Light Rain
11:14 AM 73.4 °F 68.0 °F 83% 30.09 in 10.0 mi ENE 15.0 mph 19.6 mph 0.00 in   Mostly Cloudy
11:27 AM 75.2 °F 66.2 °F 73% 30.09 in 10.0 mi ENE 15.0 mph - 0.00 in   Mostly Cloudy
11:53 AM 77.0 °F 68.0 °F 74% 30.08 in 10.0 mi ENE 11.5 mph 21.9 mph 0.00 in   Mostly Cloudy
12:53 PM 77.0 °F 66.0 °F 69% 30.05 in 10.0 mi NE 18.4 mph 23.0 mph N/A   Mostly Cloudy
1:53 PM 77.0 °F 66.0 °F 69% 30.03 in 10.0 mi NE 17.3 mph - N/A   Mostly Cloudy
2:53 PM 75.0 °F 66.0 °F 73% 30.03 in 10.0 mi NE 16.1 mph - N/A   Overcast
3:15 PM 75.2 °F 66.2 °F 73% 30.03 in 10.0 mi NE 13.8 mph - N/A   Overcast
3:53 PM 75.0 °F 66.9 °F 76% 30.02 in 10.0 mi ENE 15.0 mph - N/A   Overcast
4:53 PM 73.9 °F 66.9 °F 79% 30.03 in 8.0 mi NE 18.4 mph - 0.00 in Rain Light Rain
5:35 PM 73.4 °F 66.2 °F 78% 30.04 in 10.0 mi NE 15.0 mph - 0.00 in   Overcast
5:53 PM 73.9 °F 66.0 °F 76% 30.04 in 10.0 mi NE 12.7 mph - 0.00 in   Mostly Cloudy
6:53 PM 73.9 °F 66.0 °F 76% 30.04 in 10.0 mi ENE 11.5 mph 19.6 mph N/A   Mostly Cloudy
7:16 PM 73.4 °F 66.2 °F 78% 30.04 in 10.0 mi ENE 17.3 mph - N/A   Mostly Cloudy
7:53 PM 73.9 °F 66.9 °F 79% 30.04 in 10.0 mi NE 18.4 mph - N/A   Overcast
8:53 PM 73.9 °F 66.9 °F 79% 30.06 in 10.0 mi ENE 12.7 mph - N/A   Mostly Cloudy
9:38 PM 73.4 °F 68.0 °F 83% 30.07 in 10.0 mi East 13.8 mph 20.7 mph N/A   Overcast
9:53 PM 73.0 °F 68.0 °F 84% 30.07 in 9.0 mi East 17.3 mph - N/A   Overcast
10:06 PM 73.4 °F 68.0 °F 83% 30.07 in 9.0 mi East 12.7 mph - 0.00 in Rain Light Rain
10:36 PM 71.6 °F 69.8 °F 94% 30.08 in 2.5 mi East 10.4 mph - 0.09 in Rain Heavy Rain
10:40 PM 71.6 °F 69.8 °F 94% 30.08 in 1.0 mi East 15.0 mph - 0.19 in Rain Heavy Rain
10:49 PM 71.6 °F 69.8 °F 94% 30.08 in 2.0 mi East 12.7 mph - 0.30 in Rain Heavy Rain
10:53 PM 71.1 °F 70.0 °F 96% 30.07 in 2.5 mi East 12.7 mph - 0.30 in Rain Heavy Rain
10:58 PM 71.6 °F 69.8 °F 94% 30.07 in 4.0 mi ENE 13.8 mph - 0.00 in Rain Rain
11:29 PM 71.6 °F 69.8 °F 94% 30.06 in 10.0 mi East 10.4 mph - N/A Rain Light Rain
11:53 PM 72.0 °F 69.1 °F 91% 30.07 in 3.0 mi East 15.0 mph - N/A Rain Heavy Rain